RH
51 37 41 52 69 60 49 40 30 30 28 22 18 19 24 26 37 65 56 44 41 55 66 73 85 82 78 75 78 77 76 73 78 73 72 72 70 73 76 76 74 70 68 68 72 72 72 67 66
43 26 46 62 56 51 38 25 32 26 21 21 22 20 26 35 32 47 53 43 39 44 64 66 86 84 81 80 81 79 77 74 74 76 73 71 70 68 73 75 75 72 69 68 71 72 72 67 66
48 21 51 56 42 41 40 27 26 20 21 19 20 24 34 44 35 39 40 38 37 41 53 64 86 85 84 83 83 82 79 76 74 73 74 71 71 69 69 74 76 73 70 69 72 73 71 70 66
32 43 35 36 33 28 25 24 23 21 19 15 16 41 38 36 39 36 34 34 38 42 63 84 87 86 84 80 81 82 81 78 76 76 75 74 73 72 69 70 76 76 73 70 72 74 72 71 67
37 42 42 32 32 22 20 19 20 19 18 15 14 42 45 38 36 35 37 32 36 48 69 75 86 84 83 83 80 82 84 82 80 77 78 78 76 76 74 71 73 78 76 73 71 73 73 72 73
49 34 36 34 25 19 18 18 22 19 17 17 19 25 35 30 37 38 35 35 35 41 60 70 83 86 83 82 81 81 80 81 82 82 82 79 78 79 79 79 77 80 80 76 73 72 72 72 72
49 46 37 27 28 26 21 17 20 21 21 19 16 22 26 23 30 32 34 34 38 42 44 67 78 81 86 86 86 86 84 84 84 82 83 84 84 82 82 81 79 79 81 80 77 74 72 71 73
47 42 32 31 30 33 22 20 21 21 22 16 15 24 31 24 19 35 35 38 47 47 47 53 56 73 81 80 82 83 84 85 85 85 87 88 88 86 85 85 83 80 80 80 82 78 75 73 74
40 50 41 35 32 31 22 22 19 21 20 17 18 20 20 19 19 22 32 37 45 47 47 48 52 57 70 80 89 87 82 83 84 87 88 86 88 78 82 79 83 83 84 83 81 82 81 80 79
39 51 37 26 29 31 24 22 23 21 22 23 22 22 21 24 27 26 38 45 49 50 49 47 48 51 53 54 92 92 90 94 90 86 86 88 80 76 66 76 80 79 84 85 83 83 86 83 82
32 38 32 26 29 25 24 22 20 25 33 26 31 28 24 28 33 34 34 38 46 45 49 44 43 45 47 50 88 96 95 95 96 92 92 92 89 87 82 95 89 88 84 91 88 87 87 89 81
31 23 22 31 25 24 25 23 25 26 31 26 31 30 29 30 32 31 32 31 32 36 39 40 44 38 38 49 49 54 87 91 89 87 92 96 97 96 95 94 96 97 93 97 85 83 81 79 73
24 23 22 24 27 26 22 29 27 26 23 25 28 30 32 30 30 30 27 28 28 30 34 36 36 41 35 35 48 50 54 61 64 66 78 84 91 95 96 89 94 96 97 96 95 94 86 71 69
26 27 24 25 23 24 23 22 31 24 21 22 26 32 30 30 28 29 30 30 32 31 34 34 34 43 43 43 45 50 51 56 61 67 68 66 83 91 91 96 95 90 96 96 95 91 92 91 74
24 27 26 24 20 24 20 22 28 22 21 20 19 31 30 28 29 34 33 33 32 31 30 34 33 40 44 46 50 56 52 49 56 57 56 57 66 78 86 96 92 95 95 94 96 93 94 95 91
22 29 29 25 22 21 19 27 19 20 20 24 21 29 30 31 31 32 32 30 28 28 31 31 29 33 39 42 47 49 52 54 55 48 44 50 63 66 74 87 94 94 92 97 98 97 98 95 94
18 21 18 18 15 18 20 28 19 14 22 25 25 28 30 32 30 31 28 28 27 28 30 32 32 34 38 41 47 48 44 51 49 47 46 51 53 53 57 74 80 87 96 96 96 96 97 98 95
22 20 16 20 17 19 18 19 17 14 27 30 30 32 31 27 28 27 26 27 28 29 33 34 35 38 41 48 48 52 54 55 55 56 50 48 52 56 58 63 69 80 89 91 98 96 95 96 98
18 20 19 18 14 16 19 17 16 14 28 33 33 30 28 27 24 26 25 25 26 27 36 37 41 43 45 51 48 51 53 55 54 54 54 47 50 55 65 67 62 74 86 90 90 96 97 96 96
16 18 24 19 14 16 18 18 20 25 32 34 31 31 28 28 28 25 24 25 27 26 35 37 38 42 46 52 52 55 51 54 58 59 47 48 49 51 49 56 62 64 83 84 90 93 96 97 96
17 30 30 23 20 19 19 24 34 32 33 33 29 27 25 27 26 24 21 22 25 26 35 37 41 41 42 45 52 57 57 60 62 58 59 56 51 52 55 52 53 66 70 91 89 93 95 97 98
25 23 24 25 27 33 18 29 25 36 36 34 28 24 20 20 19 20 19 20 20 22 24 38 39 41 39 44 54 57 62 64 61 61 58 57 51 52 55 54 53 55 65 83 92 90 94 93 94
24 25 24 24 25 24 24 35 34 31 35 28 21 18 18 19 18 20 21 20 23 27 43 44 42 43 45 49 51 62 64 66 62 64 60 56 56 55 51 53 50 51 62 86 91 90 94 94 92
23 22 24 25 28 39 19 22 21 36 35 27 20 18 20 20 22 23 24 25 28 32 41 45 47 46 47 51 53 56 63 67 66 62 66 60 59 57 55 54 57 59 80 82 88 89 91 92 93
23 30 45 44 47 28 16 25 37 34 29 21 21 20 21 24 26 28 32 36 35 36 38 37 41 48 44 46 51 53 59 66 70 62 62 60 59 58 57 59 60 76 74 77 79 85 87 88 93
29 31 50 62 40 30 23 37 40 25 19 20 17 21 24 26 27 30 34 37 37 34 40 42 45 47 47 46 50 56 58 68 62 63 61 61 58 56 56 58 62 69 66 70 75 83 88 86 94
32 40 33 43 35 44 36 20 18 18 18 20 20 24 28 31 26 28 29 31 32 31 33 35 38 37 36 40 49 47 44 53 57 54 60 61 58 51 51 58 64 66 69 78 81 85 88 89 89
37 26 41 45 79 59 29 29 29 27 25 21 23 27 28 28 25 25 29 30 30 31 31 32 35 34 33 43 45 39 42 39 43 53 50 52 52 53 56 60 65 66 72 76 81 88 86 90 90
31 31 32 36 39 58 59 41 25 24 22 22 31 30 28 26 24 24 26 27 28 30 30 33 34 35 37 38 39 40 43 47 46 48 51 49 50 51 54 58 64 70 72 72 81 85 88 88 89
30 33 36 84 75 62 72 59 24 23 31 28 32 28 30 28 28 25 24 26 25 26 29 30 28 31 32 34 36 38 40 46 43 44 45 46 49 50 53 58 66 77 79 78 84 88 87 90 92
Wind_Speed
14 11 6 2 2 3 5 5 3 4 3 6 9 6 10 16 8 3 4 6 10 12 14 10 10 9 11 9 9 10 8 7 6 6 5 4 3 3 5 6 7 7 5 5 6 5 7 6 6
7 12 1 4 3 3 2 7 11 10 7 5 3 7 11 14 11 10 6 5 5 11 14 11 10 9 8 8 9 11 10 8 7 6 5 5 4 3 3 4 6 6 5 5 4 4 4 5 5
9 8 2 3 4 4 3 11 9 7 5 7 7 6 8 8 14 6 8 5 9 7 13 13 14 9 6 7 8 10 9 8 6 5 6 5 5 4 4 3 5 6 5 5 5 4 3 4 4
4 1 4 2 9 7 13 9 4 2 4 8 8 15 11 10 7 8 5 5 8 8 14 15 14 10 7 7 7 9 10 10 9 7 7 7 7 6 6 5 6 7 7 6 6 6 5 4 3
3 4 4 5 4 6 10 6 5 5 5 10 8 15 16 11 10 8 5 5 7 13 13 11 11 8 6 5 4 7 9 9 10 9 9 10 10 9 9 8 7 8 9 9 8 8 7 6 6
3 3 4 2 10 7 10 9 2 5 11 12 10 7 13 9 9 4 5 7 9 8 12 11 11 9 7 6 5 6 6 7 7 8 9 10 10 10 11 10 9 11 11 11 11 10 10 8 7
3 4 4 5 7 9 9 9 11 9 12 8 8 5 7 10 8 7 6 8 9 8 6 6 4 8 10 12 11 10 9 8 8 9 10 10 11 11 12 13 12 12 13 13 13 12 11 10 9
3 2 3 7 6 6 6 3 4 7 6 4 8 7 5 5 6 2 4 9 15 14 14 15 11 5 7 5 8 9 10 10 10 10 11 11 10 11 11 13 15 15 15 15 15 14 13 12 10
2 3 7 8 10 6 7 8 7 1 4 9 9 12 9 9 6 6 9 13 12 12 13 13 13 12 7 7 9 9 8 9 11 10 12 11 6 9 14 16 18 20 18 16 16 16 14 12 11
2 4 5 5 7 7 7 6 4 6 4 9 10 10 9 10 11 10 10 8 10 12 11 12 12 12 11 8 5 5 8 5 6 5 7 6 9 7 9 11 21 20 20 17 16 16 14 12 4
4 5 1 5 3 6 6 6 5 6 7 7 7 8 9 9 10 10 11 9 9 9 8 10 10 11 12 10 4 3 3 3 3 6 8 8 5 5 5 3 5 8 14 5 9 9 7 8 7
3 5 5 2 5 5 5 5 5 7 5 7 6 8 10 12 10 9 8 8 8 9 8 8 7 8 9 6 7 8 5 3 3 4 5 3 4 6 5 3 4 7 3 5 5 7 10 11 12
7 4 2 4 1 3 7 1 4 7 6 6 4 8 10 10 10 9 9 9 8 8 8 8 8 7 7 8 5 5 6 6 8 6 4 3 4 5 6 7 5 4 4 5 8 14 9 11 12
3 2 3 2 4 6 10 11 2 7 9 8 6 10 9 9 9 10 10 9 10 8 8 9 8 7 7 6 6 5 5 6 5 5 6 7 2 3 4 5 6 7 4 5 6 5 5 5 7
3 4 6 6 6 6 11 7 8 9 5 6 9 11 9 9 9 9 8 8 9 7 8 9 9 8 7 7 6 5 5 5 5 5 8 8 5 5 5 4 5 5 6 7 5 5 5 4 5
5 2 3 6 6 5 8 7 11 3 6 5 7 8 8 8 8 8 9 8 8 7 8 8 9 9 9 8 6 5 5 5 5 5 7 8 8 7 6 5 4 5 5 4 4 5 5 5 4
10 7 11 8 11 8 7 10 10 14 8 4 7 8 7 6 9 7 7 7 8 8 8 8 8 9 9 8 6 7 9 6 6 6 8 8 8 8 7 5 6 5 4 5 6 4 3 4 4
11 8 9 6 9 6 12 15 10 11 8 5 5 7 5 7 6 7 8 7 6 8 7 8 7 8 8 5 5 5 5 5 6 6 6 10 7 6 7 7 7 5 5 7 5 7 5 5 4
6 7 11 10 9 15 8 17 15 10 9 8 6 7 9 9 8 8 6 6 7 7 7 8 8 8 6 4 6 5 5 5 6 7 9 13 11 9 7 4 7 6 5 6 8 5 7 5 3
7 8 7 11 12 17 14 20 7 10 8 9 10 9 8 9 10 9 9 8 8 8 5 6 6 6 5 4 4 4 5 4 4 5 9 10 13 13 11 11 9 9 5 7 7 7 5 5 3
10 6 9 14 21 17 10 5 6 9 10 7 6 9 10 9 9 9 12 11 10 9 6 2 4 6 5 5 4 4 4 4 4 5 5 6 10 12 13 12 12 7 8 5 7 6 8 7 3
8 9 15 18 13 4 7 9 2 10 9 5 10 9 8 9 9 11 13 12 12 11 14 4 4 4 5 3 3 6 4 6 5 6 6 8 9 10 11 11 11 10 8 10 7 7 7 7 7
6 12 20 20 17 13 9 3 4 9 9 12 11 10 10 11 13 13 12 12 11 9 7 5 5 6 6 5 4 4 5 4 5 6 10 10 8 7 10 12 12 13 8 7 6 9 7 7 7
9 14 24 14 8 2 12 6 4 5 6 5 8 9 9 10 9 9 10 13 12 9 9 7 8 7 6 6 7 7 7 7 6 9 8 8 7 8 9 11 11 11 8 9 9 11 10 7 8
17 10 7 6 1 6 21 10 7 9 6 8 10 9 8 8 7 8 8 9 10 11 10 10 10 8 6 7 8 8 7 8 9 9 7 8 8 9 10 10 12 7 10 13 13 14 13 10 8
10 4 2 7 4 14 13 3 3 7 6 8 8 7 10 9 8 7 7 8 8 9 9 9 9 9 8 8 8 8 8 5 7 7 6 6 8 9 11 12 12 10 12 13 13 12 12 11 9
7 7 5 6 11 10 5 5 10 17 22 15 18 14 12 10 10 8 8 8 8 8 8 8 8 8 10 9 7 7 9 8 6 8 6 6 8 8 12 14 14 12 13 12 13 11 13 13 11
2 1 4 3 5 7 8 23 10 24 27 21 17 17 15 11 11 11 8 8 7 7 7 8 8 10 10 9 7 8 8 12 11 7 10 10 9 10 13 15 13 13 12 13 13 13 13 13 11
3 5 5 5 4 8 12 8 18 22 21 20 16 18 15 12 11 10 10 9 7 8 8 9 9 8 8 8 8 9 9 9 10 10 9 10 12 13 15 15 14 10 13 15 14 15 14 15 14
7 8 6 3 8 7 11 17 10 22 24 21 16 14 16 15 14 14 11 9 10 10 8 9 9 8 9 8 8 10 11 8 10 10 12 14 14 12 14 14 11 14 15 15 15 15 14 16 17
Wind_Direction
296 248 218 323 343 213 257 57 45 96 96 38 33 359 61 57 38 57 203 93 112 128 134 152 151 159 159 166 169 160 157 161 154 158 158 149 149 119 143 167 140 134 127 128 114 98 111 100 90
296 291 194 271 246 254 70 136 73 47 34 332 219 332 67 60 81 111 103 111 132 130 136 150 159 167 174 178 169 169 170 170 172 178 178 184 194 178 177 175 154 147 144 151 144 118 122 110 97
250 258 257 217 247 32 62 54 64 94 48 346 355 71 37 351 56 81 110 112 109 116 144 143 163 174 194 203 190 178 173 180 177 204 204 206 207 214 217 195 179 168 167 172 171 158 155 136 119
333 214 256 256 283 42 46 59 360 92 115 32 350 91 77 42 49 65 59 128 128 132 100 140 155 166 200 214 198 188 191 188 188 207 224 222 222 222 227 223 201 192 182 191 189 191 191 183 168
234 262 266 227 88 70 65 33 350 48 42 44 340 93 86 56 81 49 89 38 89 95 119 130 149 165 199 222 187 185 205 208 194 204 226 232 229 229 226 225 223 206 200 198 200 204 207 207 200
289 223 284 304 87 72 65 356 346 20 63 26 30 12 75 51 30 84 29 79 60 78 119 138 153 162 193 228 235 243 240 230 223 219 227 244 245 242 243 236 222 209 207 206 207 210 212 215 219
295 330 314 352 79 72 36 356 24 357 52 42 351 337 74 39 10 10 34 46 82 82 37 82 191 181 196 199 207 215 232 239 240 242 245 247 245 239 243 234 234 226 215 216 212 213 216 217 228
292 279 233 20 16 62 28 40 356 17 88 46 6 27 42 42 347 28 10 47 52 47 36 24 32 44 7 296 243 237 235 237 245 244 248 243 243 243 240 231 229 229 225 222 218 215 217 217 218
226 288 40 31 22 71 44 353 42 276 280 69 53 44 18 352 335 18 60 49 45 31 35 29 14 6 6 26 13 355 282 267 257 251 242 246 235 236 222 224 219 216 216 219 219 218 219 215 215
333 48 48 14 45 5 347 336 7 320 35 51 35 30 18 35 14 36 50 42 53 39 20 23 14 359 359 9 49 16 352 338 326 283 276 248 231 233 251 216 222 224 216 209 215 219 224 224 215
17 75 332 66 49 329 314 333 325 353 67 56 41 19 15 49 38 32 37 28 60 54 28 23 20 3 1 349 11 5 349 328 321 320 347 341 298 266 269 268 244 218 212 212 215 207 211 199 214
165 78 13 57 37 320 338 300 102 68 84 72 59 33 30 31 54 33 45 29 40 58 40 30 28 17 2 353 7 352 333 319 307 304 325 330 328 329 294 279 221 230 208 220 260 212 202 205 210
49 32 5 49 82 2 321 2 354 122 122 111 80 62 46 36 24 35 28 26 40 43 38 27 19 31 9 3 359 347 338 344 335 324 299 327 327 316 326 309 305 238 207 202 203 251 210 196 210
2 341 108 66 93 70 352 315 127 139 167 179 174 91 68 48 32 31 16 26 13 28 28 16 11 28 18 2 353 334 326 331 322 324 321 315 264 306 307 322 317 305 270 255 239 247 192 212 235
288 202 187 89 13 47 335 273 201 124 178 7 8 100 77 46 47 39 17 19 18 16 20 15 6 21 17 352 339 330 318 325 313 322 326 322 342 349 315 277 288 303 309 289 269 272 262 231 259
233 265 20 109 47 61 22 303 10 264 85 27 16 83 101 78 58 38 33 13 15 13 22 11 3 6 5 346 336 331 333 335 323 344 328 340 352 338 308 297 281 289 302 299 288 271 267 255 239
57 4 359 339 62 14 25 281 274 311 49 7 34 59 69 103 65 55 45 23 8 1 24 11 6 2 359 339 343 353 343 339 337 339 329 342 335 339 328 316 304 313 285 278 272 254 241 260 244
335 340 317 317 337 347 307 275 284 316 80 29 71 106 77 58 84 82 51 15 14 345 29 15 2 357 351 356 1 339 343 330 336 326 319 316 311 311 318 321 314 316 310 306 277 267 250 228 238
273 311 306 343 318 336 281 287 276 269 134 121 89 57 44 19 12 58 33 6 352 349 35 15 359 351 346 357 354 339 332 333 319 316 330 342 327 327 325 305 307 296 282 277 287 285 279 260 197
323 303 331 298 335 314 294 290 332 51 61 56 61 37 27 24 9 348 353 359 4 344 19 16 349 344 349 12 338 327 330 307 315 332 329 320 333 324 322 314 297 293 268 283 274 272 270 263 222
339 23 327 300 320 283 313 290 118 84 89 91 108 52 29 19 346 350 354 345 348 334 321 341 357 360 348 2 328 321 319 320 323 320 313 317 319 313 308 311 300 296 301 267 274 264 255 252 243
315 13 314 300 313 305 14 287 329 132 114 139 64 47 10 5 352 349 346 347 346 334 319 347 9 328 305 321 311 315 304 315 303 309 306 309 305 301 298 290 303 300 290 278 265 262 255 259 246
292 324 290 285 280 289 292 341 98 146 85 52 36 19 13 10 354 342 349 342 339 332 314 329 326 299 285 273 259 263 281 277 296 299 299 304 300 305 304 298 297 296 289 293 298 289 259 248 245
299 311 292 265 231 248 41 359 267 59 61 54 27 17 9 351 343 347 355 346 330 319 314 308 287 269 283 284 272 260 260 278 289 293 292 299 304 306 304 304 299 295 323 321 316 301 270 249 241
1 347 332 353 253 264 14 341 60 84 68 20 12 6 346 343 356 353 346 341 338 339 333 333 337 317 300 283 288 273 255 264 267 277 282 296 303 305 298 302 297 304 302 301 303 294 283 269 251
317 358 347 297 334 299 325 294 72 122 55 17 7 359 352 346 348 343 343 326 320 318 318 321 317 320 315 304 293 287 269 255 259 261 276 283 292 293 303 297 289 282 288 283 283 286 288 271 251
2 47 298 284 261 264 250 318 336 341 354 7 357 358 344 357 350 342 337 318 319 323 323 322 321 316 313 299 305 308 307 288 277 281 278 285 284 293 300 297 287 283 276 273 275 267 270 279 276
228 216 21 289 310 306 306 310 301 344 339 348 352 354 353 354 355 339 327 319 308 322 325 325 317 310 306 310 306 312 306 306 298 294 294 290 287 299 306 297 286 282 283 277 278 268 263 259 257
12 353 349 339 309 290 303 289 344 308 336 335 7 346 349 344 333 319 319 311 315 328 326 317 311 312 319 314 312 310 300 294 300 297 295 300 301 299 298 294 291 299 296 285 276 267 266 269 262
75 28 359 13 306 299 282 286 308 341 345 349 346 345 343 340 340 329 316 331 338 329 317 315 314 322 316 308 306 300 297 297 299 297 301 295 293 294 293 290 292 301 285 280 278 274 266 254 246